カタログに戻る

COSMOS 886 DEB

運用中LEO
NORAD 18907·DEBRIS·🇷🇺 Russia

打ち上げ Dec 27, 1976 から Baikonur Cosmodrome

Loading…

次のパス (今後24時間)

TLE

最新Source: Space-Track

元期: Sep 14, 2026, 04:19 UTC

1 18907U 76126BY  26257.18010841  .00001750  00000-0  41752-3 0  9997
2 18907  65.8140 168.3446 0865908 346.8004  11.1603 13.31640556859631

AllMySatでCOSMOS 886 DEBをリアルタイム追跡

Download on the App Store